TimePDT,TemperatureF,Dew PointF,Humidity,Sea Level PressureIn,VisibilityMPH,Wind Direction,Wind SpeedMPH,Gust SpeedMPH,PrecipitationIn,Events,Conditions,WindDirDegrees,DateUTC
12:00 AM,49.5,42.4,77,30.09,-9999.0,West,9.2,-,N/A,,Unknown,260,2013-03-31 07:00:00
1:00 AM,51.4,45.0,79,30.08,-9999.0,West,17.3,-,N/A,,Unknown,270,2013-03-31 08:00:00
2:00 AM,50.4,43.5,77,30.08,-9999.0,West,12.7,-,N/A,,Unknown,270,2013-03-31 09:00:00
3:00 AM,50.4,43.0,76,30.07,-9999.0,West,15.0,-,N/A,,Unknown,270,2013-03-31 10:00:00
4:00 AM,49.3,42.6,78,30.06,-9999.0,West,15.0,-,N/A,,Unknown,270,2013-03-31 11:00:00
5:00 AM,49,42,69,30.06,,West,16.1,,,,,280,2013-03-31 12:00:00
5:00 AM,48.9,41.9,77,30.06,-9999.0,West,16.1,-,N/A,,Unknown,280,2013-03-31 12:00:00
6:00 AM,46.2,40.8,81,30.06,-9999.0,WSW,11.5,-,N/A,,Unknown,250,2013-03-31 13:00:00
7:00 AM,47.8,42.4,82,30.05,-9999.0,West,11.5,-,N/A,,Unknown,280,2013-03-31 14:00:00
8:00 AM,47.7,42.1,81,30.05,-9999.0,West,12.7,-,N/A,,Unknown,270,2013-03-31 15:00:00
10:00 AM,48.2,42.3,80,30.04,-9999.0,West,12.7,-,N/A,,Unknown,280,2013-03-31 17:00:00
11:00 AM,49,43,73,30.04,,WNW,13.8,,,,,290,2013-03-31 18:00:00
11:00 AM,48.6,43.0,81,30.04,-9999.0,WNW,13.8,-,N/A,,Unknown,290,2013-03-31 18:00:00
12:00 PM,48.9,43.0,80,30.04,-9999.0,WNW,12.7,-,N/A,,Unknown,290,2013-03-31 19:00:00
1:00 PM,49.5,43.5,80,30.01,-9999.0,West,11.5,-,N/A,,Unknown,270,2013-03-31 20:00:00
2:00 PM,50.7,42.1,72,29.99,-9999.0,West,11.5,-,N/A,,Unknown,270,2013-03-31 21:00:00
3:00 PM,52.9,43.9,71,29.98,-9999.0,West,8.1,-,N/A,,Unknown,260,2013-03-31 22:00:00
4:00 PM,54.7,45.0,70,29.96,-9999.0,WSW,6.9,-,N/A,,Unknown,250,2013-03-31 23:00:00
5:00 PM,54,45,62,29.94,,WSW,5.8,,,,,250,2013-04-01 00:00:00
5:00 PM,54.5,44.6,69,29.94,-9999.0,WSW,5.8,-,N/A,,Unknown,250,2013-04-01 00:00:00
6:00 PM,54.7,44.2,68,29.92,-9999.0,West,8.1,-,N/A,,Unknown,260,2013-04-01 01:00:00
7:00 PM,53.8,43.2,67,29.91,-9999.0,WSW,6.9,-,N/A,,Unknown,250,2013-04-01 02:00:00
8:00 PM,52.2,43.0,71,29.90,-9999.0,West,5.8,-,N/A,,Unknown,260,2013-04-01 03:00:00
9:00 PM,51.6,43.5,74,29.90,-9999.0,WSW,8.1,-,N/A,,Unknown,250,2013-04-01 04:00:00
10:00 PM,50.7,44.8,80,29.91,-9999.0,West,6.9,-,N/A,,Unknown,260,2013-04-01 05:00:00
11:00 PM,50,45,76,29.91,,West,5.8,,,,,260,2013-04-01 06:00:00
11:00 PM,50.0,44.8,82,29.91,-9999.0,West,5.8,-,N/A,,Unknown,260,2013-04-01 06:00:00